Regional Weather Roundup
Issued by NWS

Home | Current Version | Previous Version | Graphics & Text | Print | Product List | Glossary On
Versions: 1 2 3 4 5 6 7 8 9 10 11 12 13 14 15 16 17 18 19 20 21 22 23 24 25 26 27 28 29 30 31 32 33 34 35 36 37 38 39 40 41 42 43 44 45 46 47 48 49 50
000
ASUS43 KBIS 272302
RWRND

NORTH DAKOTA REGIONAL WEATHER ROUNDUP
NATIONAL WEATHER SERVICE BISMARCK ND
600 PM CDT MON MAR 27 2017

NOTE: "FAIR" INDICATES FEW OR NO CLOUDS BELOW 12,000 FEET WITH NO
SIGNIFICANT WEATHER AND/OR OBSTRUCTIONS TO VISIBILITY.


NDZ001>003-009>011-017-280000-
NORTHWEST NORTH DAKOTA

CITY           SKY/WX    TMP DP  RH WIND       PRES   REMARKS
WILLISTON      CLOUDY    57  33  40 E14       29.89R
MINOT          CLOUDY    38  36  92 NW10      29.97R FOG
MINOT AFB      FOG       36  35  98 N12       29.96S VSB 3/16
$$

NDZ018>021-031>035-040>046-280000-
SOUTHWEST NORTH DAKOTA

CITY           SKY/WX    TMP DP  RH WIND       PRES   REMARKS
BISMARCK       FAIR      64  28  25 SE6       29.89S
DICKINSON      CLOUDY    59  23  25 E9        29.84S
GARRISON         N/A     53  40  61 NE9       29.91R
HETTINGER ARPT SUNNY     60  28  29 SE10      29.88R
$$

NDZ004>008-012>016-024-026-027-054-280000-
NORTHEAST NORTH DAKOTA

CITY           SKY/WX    TMP DP  RH WIND       PRES   REMARKS
GRAND FORKS    PTSUNNY   45  40  82 NE7       30.00S
GRND FRKS AFB  MOSUNNY   44  41  89 NE7       30.00F
DEVILS LAKE    FAIR      50  44  80 E14       29.95S
$$

NDZ022-023-025-028>030-036>039-047>053-280000-
SOUTHEAST NORTH DAKOTA

CITY           SKY/WX    TMP DP  RH WIND       PRES   REMARKS
FARGO          SUNNY     57  43  59 N7        29.95F
JAMESTOWN      FAIR      58  37  45 SE13      29.92S
$$





USA.gov is the U.S. government's official web portal to all federal, state and local government web resources and services.